• In Deutschland
  • Länderverzeichnis
  • Für 7 Tage
  • Wassertemperatur
  • Satellitenkarten
  • Wetterkarte
  • Widgets
  • user-avatar
    Anmelden

    Stündliche Wetter Schwerte

    Heute, 17 Juli, Dienstag

    Zeit Temperatur Niederschläge Wind Luftdruck Luftfeuchtigkeit
    00:00 +21°C° 0 mm 1 m/S 747 mmHg 67%
    01:00 +20°C° 0 mm 1 m/S 748 mmHg 70%
    02:00 +20°C° 0 mm 1 m/S 748 mmHg 71%
    03:00 +20°C° 0 mm 1 m/S 747 mmHg 73%
    04:00 +19°C° 0 mm 1 m/S 747 mmHg 74%
    05:00 +20°C° 0 mm 1 m/S 748 mmHg 71%
    06:00 +21°C° 0 mm 1 m/S 748 mmHg 69%
    07:00 +22°C° 0 mm 1 m/S 748 mmHg 66%
    08:00 +24°C° 0 mm 1 m/S 748 mmHg 60%
    09:00 +26°C° 0 mm 1 m/S 748 mmHg 54%
    10:00 +27°C° 0 mm 2 m/S 748 mmHg 47%
    11:00 +28°C° 0 mm 2 m/S 748 mmHg 44%
    12:00 +29°C° 0 mm 2 m/S 748 mmHg 40%
    13:00 +30°C° 0 mm 3 m/S 748 mmHg 37%
    14:00 +30°C° 0 mm 3 m/S 748 mmHg 37%
    15:00 +30°C° 0 mm 3 m/S 748 mmHg 38%
    16:00 +30°C° 0 mm 3 m/S 748 mmHg 39%
    17:00 +29°C° 0 mm 3 m/S 748 mmHg 44%
    18:00 +27°C° 0 mm 3 m/S 748 mmHg 49%
    19:00 +26°C° 0 mm 3 m/S 748 mmHg 55%
    20:00 +25°C° 0,3 mm 3 m/S 749 mmHg 60%
    21:00 +23°C° 0,3 mm 2 m/S 749 mmHg 66%
    22:00 +20°C° 0,3 mm 2 m/S 749 mmHg 72%
    23:00 +19°C° 0 mm 2 m/S 750 mmHg 75%

    Morgen, 18 Juli, Mittwoch

    Zeit Temperatur Niederschläge Wind Luftdruck Luftfeuchtigkeit
    00:00 +18°C° 0 mm 2 m/S 750 mmHg 78%
    01:00 +19°C° 0 mm 1 m/S 750 mmHg 81%
    02:00 +18°C° 0 mm 1 m/S 750 mmHg 82%
    03:00 +18°C° 0 mm 1 m/S 750 mmHg 82%
    04:00 +16°C° 0 mm 1 m/S 750 mmHg 83%
    05:00 +18°C° 0 mm 1 m/S 750 mmHg 81%
    06:00 +19°C° 0 mm 1 m/S 750 mmHg 78%
    07:00 +19°C° 0 mm 1 m/S 751 mmHg 75%
    08:00 +21°C° 0 mm 1 m/S 751 mmHg 66%
    09:00 +22°C° 0 mm 1 m/S 751 mmHg 58%
    10:00 +24°C° 0 mm 1 m/S 751 mmHg 49%
    11:00 +25°C° 0 mm 1 m/S 751 mmHg 46%
    12:00 +26°C° 0 mm 1 m/S 751 mmHg 43%
    13:00 +27°C° 0 mm 2 m/S 750 mmHg 39%
    14:00 +27°C° 0 mm 2 m/S 750 mmHg 38%
    15:00 +27°C° 0 mm 2 m/S 750 mmHg 37%
    16:00 +28°C° 0 mm 2 m/S 750 mmHg 36%
    17:00 +27°C° 0 mm 2 m/S 750 mmHg 41%
    18:00 +26°C° 0 mm 2 m/S 750 mmHg 45%
    19:00 +25°C° 0 mm 2 m/S 750 mmHg 49%
    20:00 +24°C° 0 mm 2 m/S 750 mmHg 54%
    21:00 +21°C° 0 mm 2 m/S 751 mmHg 58%
    22:00 +20°C° 0 mm 2 m/S 751 mmHg 62%
    23:00 +19°C° 0 mm 2 m/S 751 mmHg 64%

    übermorgen, 19 Juli, Donnerstag

    Zeit Temperatur Niederschläge Wind Luftdruck Luftfeuchtigkeit
    00:00 +18°C° 0 mm 2 m/S 751 mmHg 66%
    01:00 +18°C° 0 mm 2 m/S 751 mmHg 69%
    02:00 +17°C° 0 mm 2 m/S 751 mmHg 70%
    03:00 +18°C° 0 mm 1 m/S 751 mmHg 71%
    04:00 +16°C° 0 mm 1 m/S 751 mmHg 73%
    05:00 +18°C° 0 mm 1 m/S 751 mmHg 70%
    06:00 +20°C° 0 mm 1 m/S 751 mmHg 67%
    07:00 +21°C° 0 mm 1 m/S 751 mmHg 64%
    08:00 +22°C° 0 mm 1 m/S 751 mmHg 58%
    09:00 +24°C° 0 mm 1 m/S 751 mmHg 52%
    10:00 +26°C° 0 mm 1 m/S 751 mmHg 45%
    11:00 +27°C° 0 mm 1 m/S 751 mmHg 44%
    12:00 +27°C° 0 mm 1 m/S 751 mmHg 43%
    13:00 +28°C° 0 mm 1 m/S 750 mmHg 41%
    14:00 +28°C° 0 mm 1 m/S 750 mmHg 41%
    15:00 +28°C° 0 mm 1 m/S 750 mmHg 40%
    16:00 +28°C° 0 mm 1 m/S 750 mmHg 40%
    17:00 +27°C° 0 mm 1 m/S 750 mmHg 44%
    18:00 +27°C° 0 mm 1 m/S 750 mmHg 48%
    19:00 +26°C° 0 mm 2 m/S 750 mmHg 52%
    20:00 +24°C° 0 mm 2 m/S 750 mmHg 55%
    21:00 +23°C° 0 mm 2 m/S 750 mmHg 59%
    22:00 +21°C° 0 mm 2 m/S 750 mmHg 62%
    23:00 +20°C° 0 mm 2 m/S 750 mmHg 63%

    20 Juli, Freitag

    Zeit Temperatur Niederschläge Wind Luftdruck Luftfeuchtigkeit
    00:00 +20°C° 0 mm 2 m/S 750 mmHg 64%
    01:00 +19°C° 0 mm 2 m/S 750 mmHg 65%
    02:00 +19°C° 0 mm 2 m/S 750 mmHg 65%
    03:00 +19°C° 0 mm 2 m/S 749 mmHg 66%
    04:00 +18°C° 0 mm 2 m/S 749 mmHg 66%
    05:00 +19°C° 0 mm 2 m/S 749 mmHg 65%
    06:00 +20°C° 0 mm 2 m/S 749 mmHg 64%
    07:00 +22°C° 0 mm 1 m/S 749 mmHg 62%
    08:00 +23°C° 0 mm 2 m/S 749 mmHg 57%
    09:00 +25°C° 0 mm 2 m/S 749 mmHg 52%
    10:00 +26°C° 0 mm 2 m/S 749 mmHg 47%
    11:00 +27°C° 0 mm 2 m/S 748 mmHg 46%
    12:00 +27°C° 0 mm 2 m/S 748 mmHg 46%
    13:00 +28°C° 0 mm 2 m/S 748 mmHg 45%
    14:00 +27°C° 0 mm 1 m/S 748 mmHg 48%
    15:00 +27°C° 0 mm 1 m/S 747 mmHg 51%
    16:00 +26°C° 0 mm 1 m/S 747 mmHg 54%
    17:00 +26°C° 0,1 mm 1 m/S 747 mmHg 58%
    18:00 +25°C° 0,1 mm 1 m/S 747 mmHg 61%
    19:00 +24°C° 0,1 mm 1 m/S 746 mmHg 64%
    20:00 +23°C° 0,1 mm 1 m/S 747 mmHg 67%
    21:00 +22°C° 0,1 mm 1 m/S 747 mmHg 69%
    22:00 +21°C° 0,1 mm 1 m/S 747 mmHg 72%
    23:00 +21°C° 0,2 mm 1 m/S 747 mmHg 74%

    21 Juli, Samstag

    Zeit Temperatur Niederschläge Wind Luftdruck Luftfeuchtigkeit
    00:00 +20°C° 0,2 mm 1 m/S 746 mmHg 77%
    01:00 +20°C° 0,2 mm 1 m/S 746 mmHg 79%
    02:00 +20°C° 0,2 mm 1 m/S 746 mmHg 81%
    03:00 +19°C° 0,2 mm 1 m/S 746 mmHg 83%
    04:00 +19°C° 0,2 mm 1 m/S 746 mmHg 84%
    05:00 +19°C° 0,1 mm 1 m/S 746 mmHg 83%
    06:00 +20°C° 0,1 mm 1 m/S 746 mmHg 83%
    07:00 +20°C° 0,1 mm 1 m/S 746 mmHg 82%
    08:00 +20°C° 0,3 mm 2 m/S 746 mmHg 80%
    09:00 +20°C° 0,3 mm 2 m/S 746 mmHg 78%
    10:00 +21°C° 0,3 mm 3 m/S 746 mmHg 75%
    11:00 +22°C° 0,5 mm 3 m/S 747 mmHg 71%
    12:00 +22°C° 0,5 mm 4 m/S 747 mmHg 67%
    13:00 +23°C° 0,5 mm 4 m/S 747 mmHg 62%
    14:00 +23°C° 0,5 mm 4 m/S 747 mmHg 62%
    15:00 +23°C° 0,5 mm 4 m/S 747 mmHg 62%
    16:00 +22°C° 0,5 mm 5 m/S 747 mmHg 62%
    17:00 +22°C° 0,1 mm 4 m/S 747 mmHg 63%
    18:00 +21°C° 0,1 mm 4 m/S 747 mmHg 65%
    19:00 +20°C° 0,1 mm 3 m/S 747 mmHg 66%
    20:00 +19°C° 0 mm 3 m/S 748 mmHg 69%
    21:00 +18°C° 0 mm 3 m/S 748 mmHg 73%
    22:00 +17°C° 0 mm 3 m/S 748 mmHg 76%
    23:00 +16°C° 0 mm 3 m/S 748 mmHg 80%

    22 Juli, Sonntag

    Zeit Temperatur Niederschläge Wind Luftdruck Luftfeuchtigkeit
    00:00 +14°C° 0 mm 3 m/S 749 mmHg 83%
    01:00 +14°C° 0 mm 3 m/S 749 mmHg 87%
    02:00 +14°C° 0 mm 3 m/S 749 mmHg 87%
    03:00 +14°C° 0 mm 3 m/S 749 mmHg 88%
    04:00 +14°C° 0 mm 3 m/S 749 mmHg 88%
    05:00 +14°C° 0 mm 3 m/S 749 mmHg 86%
    06:00 +14°C° 0 mm 3 m/S 749 mmHg 85%
    07:00 +15°C° 0 mm 2 m/S 750 mmHg 83%
    08:00 +16°C° 0,1 mm 2 m/S 750 mmHg 77%
    09:00 +18°C° 0,1 mm 2 m/S 750 mmHg 72%
    10:00 +19°C° 0,1 mm 2 m/S 750 mmHg 66%
    11:00 +19°C° 0,1 mm 2 m/S 750 mmHg 63%
    12:00 +20°C° 0,1 mm 3 m/S 750 mmHg 61%
    13:00 +21°C° 0,1 mm 3 m/S 750 mmHg 58%
    14:00 +21°C° 0 mm 3 m/S 750 mmHg 56%
    15:00 +22°C° 0 mm 3 m/S 750 mmHg 54%
    16:00 +24°C° 0 mm 3 m/S 750 mmHg 52%
    17:00 +23°C° 0 mm 2 m/S 750 mmHg 54%
    18:00 +23°C° 0 mm 2 m/S 751 mmHg 56%
    19:00 +23°C° 0 mm 1 m/S 751 mmHg 59%
    20:00 +21°C° 0 mm 1 m/S 751 mmHg 63%
    21:00 +20°C° 0 mm 1 m/S 751 mmHg 67%
    22:00 +19°C° 0 mm 1 m/S 752 mmHg 71%
    23:00 +18°C° 0 mm 1 m/S 752 mmHg 73%
    Mehr zeigen